Time,TemperatureF,DewpointF,PressureIn,WindDirection,WindDirectionDegrees,WindSpeedMPH,WindSpeedGustMPH,Humidity,HourlyPrecipIn,Conditions,Clouds,dailyrainin,SoftwareType,DateUTC
2013-04-21 00:01:00,46.4,31.5,30.38,ESE,116,0.0,0.0,56,0.00,,,0.00,Wunderground v.1.15,2013-04-21 05:01:00,
2013-04-21 00:06:00,46.3,31.9,30.38,ESE,103,0.0,0.0,57,0.00,,,0.00,Wunderground v.1.15,2013-04-21 05:06:00,
2013-04-21 00:11:00,46.3,31.9,30.38,ESE,105,0.0,2.0,57,0.00,,,0.00,Wunderground v.1.15,2013-04-21 05:11:00,
2013-04-21 00:16:00,46.3,31.4,30.38,ENE,62,1.0,2.0,56,0.00,,,0.00,Wunderground v.1.15,2013-04-21 05:16:00,
2013-04-21 00:21:00,46.3,31.9,30.38,East,93,1.0,1.0,57,0.00,,,0.00,Wunderground v.1.15,2013-04-21 05:21:00,
2013-04-21 00:26:00,46.2,32.2,30.38,ESE,107,0.0,2.0,58,0.00,,,0.00,Wunderground v.1.15,2013-04-21 05:26:00,
2013-04-21 00:31:00,46.2,32.2,30.38,East,100,0.0,0.0,58,0.00,,,0.00,Wunderground v.1.15,2013-04-21 05:31:00,
2013-04-21 00:36:00,46.1,32.1,30.38,East,100,0.0,0.0,58,0.00,,,0.00,Wunderground v.1.15,2013-04-21 05:36:00,
2013-04-21 00:41:00,46.0,32.5,30.38,East,94,0.0,0.0,59,0.00,,,0.00,Wunderground v.1.15,2013-04-21 05:41:00,
2013-04-21 00:46:00,46.0,32.9,30.38,ESE,110,1.0,1.0,60,0.00,,,0.00,Wunderground v.1.15,2013-04-21 05:46:00,
2013-04-21 00:51:00,45.9,32.4,30.38,ESE,113,1.0,1.0,59,0.00,,,0.00,Wunderground v.1.15,2013-04-21 05:51:00,
2013-04-21 00:56:00,45.9,32.8,30.38,ESE,105,1.0,1.0,60,0.00,,,0.00,Wunderground v.1.15,2013-04-21 05:56:00,
2013-04-21 01:01:00,45.9,32.8,30.38,NE,49,1.0,2.0,60,0.00,,,0.00,Wunderground v.1.15,2013-04-21 06:01:00,
2013-04-21 01:06:00,45.9,33.2,30.38,ENE,76,1.0,2.0,61,0.00,,,0.00,Wunderground v.1.15,2013-04-21 06:06:00,
2013-04-21 01:11:00,45.9,33.2,30.38,ENE,65,1.0,2.0,61,0.00,,,0.00,Wunderground v.1.15,2013-04-21 06:11:00,
2013-04-21 01:16:00,45.8,33.5,30.38,ESE,111,1.0,2.0,62,0.00,,,0.00,Wunderground v.1.15,2013-04-21 06:16:00,
2013-04-21 01:21:00,45.6,33.3,30.38,East,82,0.0,0.0,62,0.00,,,0.00,Wunderground v.1.15,2013-04-21 06:21:00,
2013-04-21 01:26:00,45.6,33.3,30.38,ESE,104,0.0,1.0,62,0.00,,,0.00,Wunderground v.1.15,2013-04-21 06:26:00,
2013-04-21 01:31:00,45.5,33.2,30.38,ESE,120,1.0,2.0,62,0.00,,,0.00,Wunderground v.1.15,2013-04-21 06:31:00,
2013-04-21 01:36:00,45.4,33.1,30.38,NE,53,1.0,3.0,62,0.00,,,0.00,Wunderground v.1.15,2013-04-21 06:36:00,
2013-04-21 01:41:00,45.4,32.7,30.38,SE,131,1.0,1.0,61,0.00,,,0.00,Wunderground v.1.15,2013-04-21 06:41:00,
2013-04-21 01:46:00,45.4,32.7,30.38,ESE,117,2.0,2.0,61,0.00,,,0.00,Wunderground v.1.15,2013-04-21 06:46:00,
2013-04-21 01:51:00,45.3,32.6,30.38,ESE,110,1.0,1.0,61,0.00,,,0.00,Wunderground v.1.15,2013-04-21 06:51:00,
2013-04-21 01:56:00,45.2,32.9,30.39,ESE,106,1.0,1.0,62,0.00,,,0.00,Wunderground v.1.15,2013-04-21 06:56:00,
2013-04-21 02:01:00,45.2,32.9,30.39,ESE,116,1.0,1.0,62,0.00,,,0.00,Wunderground v.1.15,2013-04-21 07:01:00,
2013-04-21 02:06:00,45.1,32.8,30.38,ESE,103,1.0,1.0,62,0.00,,,0.00,Wunderground v.1.15,2013-04-21 07:06:00,
2013-04-21 02:16:00,44.8,33.0,30.38,ENE,65,0.0,4.0,63,0.00,,,0.00,Wunderground v.1.15,2013-04-21 07:16:00,
2013-04-21 02:21:00,44.7,32.9,30.38,East,86,1.0,1.0,63,0.00,,,0.00,Wunderground v.1.15,2013-04-21 07:21:00,
2013-04-21 02:26:00,44.7,32.9,30.38,ESE,108,1.0,2.0,63,0.00,,,0.00,Wunderground v.1.15,2013-04-21 07:26:00,
2013-04-21 02:36:00,44.4,33.0,30.38,East,91,1.0,3.0,64,0.00,,,0.00,Wunderground v.1.15,2013-04-21 07:36:00,
2013-04-21 02:41:00,44.4,33.4,30.38,East,89,1.0,1.0,65,0.00,,,0.00,Wunderground v.1.15,2013-04-21 07:41:00,
2013-04-21 02:46:00,44.1,33.1,30.38,East,89,0.0,1.0,65,0.00,,,0.00,Wunderground v.1.15,2013-04-21 07:46:00,
2013-04-21 02:56:00,43.9,33.3,30.38,ESE,109,1.0,1.0,66,0.00,,,0.00,Wunderground v.1.15,2013-04-21 07:56:00,
2013-04-21 03:01:00,43.8,33.2,30.39,ESE,112,0.0,0.0,66,0.00,,,0.00,Wunderground v.1.15,2013-04-21 08:01:00,
2013-04-21 03:06:00,43.6,33.0,30.39,ESE,102,0.0,0.0,66,0.00,,,0.00,Wunderground v.1.15,2013-04-21 08:06:00,
2013-04-21 03:11:00,43.6,33.0,30.39,East,89,0.0,0.0,66,0.00,,,0.00,Wunderground v.1.15,2013-04-21 08:11:00,
2013-04-21 03:16:00,43.5,33.3,30.39,SE,124,0.0,1.0,67,0.00,,,0.00,Wunderground v.1.15,2013-04-21 08:16:00,
2013-04-21 03:21:00,43.5,33.3,30.39,East,99,1.0,1.0,67,0.00,,,0.00,Wunderground v.1.15,2013-04-21 08:21:00,
2013-04-21 03:26:00,43.3,33.1,30.39,East,100,1.0,1.0,67,0.00,,,0.00,Wunderground v.1.15,2013-04-21 08:26:00,
2013-04-21 03:31:00,43.3,33.1,30.39,East,91,0.0,1.0,67,0.00,,,0.00,Wunderground v.1.15,2013-04-21 08:31:00,
2013-04-21 03:36:00,43.3,33.1,30.39,East,96,1.0,1.0,67,0.00,,,0.00,Wunderground v.1.15,2013-04-21 08:36:00,
2013-04-21 03:46:00,43.3,33.1,30.39,ESE,105,1.0,1.0,67,0.00,,,0.00,Wunderground v.1.15,2013-04-21 08:46:00,
2013-04-21 03:51:00,43.3,33.1,30.39,East,79,1.0,1.0,67,0.00,,,0.00,Wunderground v.1.15,2013-04-21 08:51:00,
2013-04-21 03:56:00,43.2,33.0,30.39,SE,125,0.0,1.0,67,0.00,,,0.00,Wunderground v.1.15,2013-04-21 08:56:00,
2013-04-21 04:01:00,43.3,33.1,30.39,ESE,109,1.0,1.0,67,0.00,,,0.00,Wunderground v.1.15,2013-04-21 09:01:00,
2013-04-21 04:11:00,43.3,33.1,30.40,East,101,1.0,1.0,67,0.00,,,0.00,Wunderground v.1.15,2013-04-21 09:11:00,
2013-04-21 04:16:00,43.3,33.1,30.40,ESE,115,0.0,1.0,67,0.00,,,0.00,Wunderground v.1.15,2013-04-21 09:16:00,
2013-04-21 04:21:00,43.3,33.1,30.40,East,90,1.0,1.0,67,0.00,,,0.00,Wunderground v.1.15,2013-04-21 09:21:00,
2013-04-21 04:26:00,43.2,33.0,30.40,ESE,113,1.0,1.0,67,0.00,,,0.00,Wunderground v.1.15,2013-04-21 09:26:00,
2013-04-21 04:31:00,43.1,32.9,30.40,ESE,106,1.0,1.0,67,0.00,,,0.00,Wunderground v.1.15,2013-04-21 09:31:00,
2013-04-21 04:36:00,43.1,33.3,30.40,ESE,103,1.0,1.0,68,0.00,,,0.00,Wunderground v.1.15,2013-04-21 09:36:00,
2013-04-21 04:41:00,43.1,33.3,30.40,ESE,121,1.0,1.0,68,0.00,,,0.00,Wunderground v.1.15,2013-04-21 09:41:00,
2013-04-21 04:46:00,43.1,33.3,30.41,ENE,62,0.0,3.0,68,0.00,,,0.00,Wunderground v.1.15,2013-04-21 09:46:00,
2013-04-21 04:51:00,43.0,33.2,30.41,East,101,1.0,1.0,68,0.00,,,0.00,Wunderground v.1.15,2013-04-21 09:51:00,
2013-04-21 04:56:00,42.9,33.1,30.41,ESE,112,1.0,1.0,68,0.00,,,0.00,Wunderground v.1.15,2013-04-21 09:56:00,
2013-04-21 05:01:00,42.9,33.1,30.41,ESE,106,1.0,1.0,68,0.00,,,0.00,Wunderground v.1.15,2013-04-21 10:01:00,
2013-04-21 05:06:00,42.8,33.3,30.41,East,92,1.0,1.0,69,0.00,,,0.00,Wunderground v.1.15,2013-04-21 10:06:00,
2013-04-21 05:11:00,42.7,33.2,30.41,SE,127,1.0,1.0,69,0.00,,,0.00,Wunderground v.1.15,2013-04-21 10:11:00,
2013-04-21 05:16:00,42.7,33.2,30.41,ESE,106,1.0,1.0,69,0.00,,,0.00,Wunderground v.1.15,2013-04-21 10:16:00,
2013-04-21 05:21:00,42.7,33.2,30.41,ESE,108,1.0,1.0,69,0.00,,,0.00,Wunderground v.1.15,2013-04-21 10:21:00,
2013-04-21 05:26:00,42.6,33.1,30.42,ESE,117,0.0,1.0,69,0.00,,,0.00,Wunderground v.1.15,2013-04-21 10:26:00,
2013-04-21 05:31:00,42.6,33.5,30.42,ENE,57,0.0,1.0,70,0.00,,,0.00,Wunderground v.1.15,2013-04-21 10:31:00,
2013-04-21 05:36:00,42.5,33.0,30.42,East,98,0.0,2.0,69,0.00,,,0.00,Wunderground v.1.15,2013-04-21 10:36:00,
2013-04-21 05:41:00,42.5,33.0,30.42,NE,46,1.0,2.0,69,0.00,,,0.00,Wunderground v.1.15,2013-04-21 10:41:00,
2013-04-21 05:46:00,42.4,33.3,30.42,ESE,105,1.0,2.0,70,0.00,,,0.00,Wunderground v.1.15,2013-04-21 10:46:00,
2013-04-21 05:51:00,42.4,33.3,30.42,ESE,105,1.0,1.0,70,0.00,,,0.00,Wunderground v.1.15,2013-04-21 10:51:00,
2013-04-21 05:56:00,42.5,33.0,30.42,ENE,65,1.0,1.0,69,0.00,,,0.00,Wunderground v.1.15,2013-04-21 10:56:00,
2013-04-21 06:01:00,42.4,33.3,30.42,ESE,102,1.0,1.0,70,0.00,,,0.00,Wunderground v.1.15,2013-04-21 11:01:00,
2013-04-21 06:11:00,42.3,33.2,30.43,ENE,63,0.0,0.0,70,0.00,,,0.00,Wunderground v.1.15,2013-04-21 11:11:00,
2013-04-21 06:16:00,42.2,33.1,30.43,ESE,105,1.0,1.0,70,0.00,,,0.00,Wunderground v.1.15,2013-04-21 11:16:00,
2013-04-21 06:21:00,42.0,33.3,30.43,ESE,102,1.0,1.0,71,0.00,,,0.00,Wunderground v.1.15,2013-04-21 11:21:00,
2013-04-21 06:26:00,42.0,32.9,30.44,SE,127,1.0,1.0,70,0.00,,,0.00,Wunderground v.1.15,2013-04-21 11:26:00,
2013-04-21 06:31:00,41.9,32.8,30.44,ESE,110,1.0,2.0,70,0.00,,,0.00,Wunderground v.1.15,2013-04-21 11:31:00,
2013-04-21 06:36:00,41.9,32.8,30.44,ESE,106,1.0,2.0,70,0.00,,,0.00,Wunderground v.1.15,2013-04-21 11:36:00,
2013-04-21 06:46:00,41.9,33.2,30.44,ESE,110,1.0,1.0,71,0.00,,,0.00,Wunderground v.1.15,2013-04-21 11:46:00,
2013-04-21 06:51:00,42.0,32.9,30.44,East,79,1.0,1.0,70,0.00,,,0.00,Wunderground v.1.15,2013-04-21 11:51:00,
2013-04-21 06:56:00,42.0,32.9,30.44,East,100,1.0,1.0,70,0.00,,,0.00,Wunderground v.1.15,2013-04-21 11:56:00,
2013-04-21 07:01:00,42.1,33.0,30.44,East,101,1.0,1.0,70,0.00,,,0.00,Wunderground v.1.15,2013-04-21 12:01:00,
2013-04-21 07:06:00,42.2,33.1,30.45,SE,134,1.0,1.0,70,0.00,,,0.00,Wunderground v.1.15,2013-04-21 12:06:00,
2013-04-21 07:11:00,42.2,33.1,30.45,East,89,1.0,1.0,70,0.00,,,0.00,Wunderground v.1.15,2013-04-21 12:11:00,
2013-04-21 07:16:00,42.3,33.2,30.45,East,94,1.0,1.0,70,0.00,,,0.00,Wunderground v.1.15,2013-04-21 12:16:00,
2013-04-21 07:21:00,42.4,33.3,30.45,ESE,109,1.0,1.0,70,0.00,,,0.00,Wunderground v.1.15,2013-04-21 12:21:00,
2013-04-21 07:26:00,42.4,33.3,30.45,ENE,72,1.0,3.0,70,0.00,,,0.00,Wunderground v.1.15,2013-04-21 12:26:00,
2013-04-21 07:36:00,43.1,33.6,30.46,East,98,1.0,1.0,69,0.00,,,0.00,Wunderground v.1.15,2013-04-21 12:36:00,
2013-04-21 07:41:00,43.4,33.5,30.46,East,98,1.0,1.0,68,0.00,,,0.00,Wunderground v.1.15,2013-04-21 12:41:00,
2013-04-21 07:46:00,43.7,33.5,30.46,East,98,1.0,2.0,67,0.00,,,0.00,Wunderground v.1.15,2013-04-21 12:46:00,
2013-04-21 07:51:00,43.8,33.2,30.46,ESE,120,1.0,1.0,66,0.00,,,0.00,Wunderground v.1.15,2013-04-21 12:51:00,
2013-04-21 07:56:00,43.9,33.6,30.46,ESE,119,1.0,1.0,67,0.00,,,0.00,Wunderground v.1.15,2013-04-21 12:56:00,
2013-04-21 08:01:00,43.9,33.6,30.46,ENE,69,0.0,2.0,67,0.00,,,0.00,Wunderground v.1.15,2013-04-21 13:01:00,
2013-04-21 08:06:00,43.9,34.0,30.46,East,90,1.0,2.0,68,0.00,,,0.00,Wunderground v.1.15,2013-04-21 13:06:00,
2013-04-21 08:11:00,43.8,33.2,30.46,ESE,110,2.0,2.0,66,0.00,,,0.00,Wunderground v.1.15,2013-04-21 13:11:00,
2013-04-21 08:16:00,43.9,33.6,30.46,SSE,148,2.0,2.0,67,0.00,,,0.00,Wunderground v.1.15,2013-04-21 13:16:00,
2013-04-21 08:21:00,44.0,33.4,30.46,East,83,1.0,1.0,66,0.00,,,0.00,Wunderground v.1.15,2013-04-21 13:21:00,
2013-04-21 08:26:00,44.3,33.7,30.46,SE,127,1.0,1.0,66,0.00,,,0.00,Wunderground v.1.15,2013-04-21 13:26:00,
2013-04-21 08:31:00,44.6,33.9,30.46,ESE,114,1.0,1.0,66,0.00,,,0.00,Wunderground v.1.15,2013-04-21 13:31:00,
2013-04-21 08:36:00,44.9,34.2,30.46,ESE,105,1.0,2.0,66,0.00,,,0.00,Wunderground v.1.15,2013-04-21 13:36:00,
2013-04-21 08:41:00,45.4,35.1,30.46,East,87,1.0,1.0,67,0.00,,,0.00,Wunderground v.1.15,2013-04-21 13:41:00,
2013-04-21 08:46:00,45.9,34.8,30.46,East,95,1.0,2.0,65,0.00,,,0.00,Wunderground v.1.15,2013-04-21 13:46:00,
2013-04-21 08:51:00,45.8,34.3,30.46,SE,132,2.0,2.0,64,0.00,,,0.00,Wunderground v.1.15,2013-04-21 13:51:00,
2013-04-21 08:56:00,46.2,34.7,30.46,ESE,106,2.0,2.0,64,0.00,,,0.00,Wunderground v.1.15,2013-04-21 13:56:00,
2013-04-21 09:01:00,46.2,33.9,30.46,ESE,102,1.0,3.0,62,0.00,,,0.00,Wunderground v.1.15,2013-04-21 14:01:00,
2013-04-21 09:11:00,46.9,34.6,30.46,ENE,63,2.0,2.0,62,0.00,,,0.00,Wunderground v.1.15,2013-04-21 14:11:00,
2013-04-21 09:16:00,47.5,34.7,30.46,SE,129,2.0,2.0,61,0.00,,,0.00,Wunderground v.1.15,2013-04-21 14:16:00,
2013-04-21 09:21:00,47.9,34.7,30.46,East,84,2.0,3.0,60,0.00,,,0.00,Wunderground v.1.15,2013-04-21 14:21:00,
2013-04-21 09:26:00,48.4,35.1,30.46,East,89,1.0,4.0,60,0.00,,,0.00,Wunderground v.1.15,2013-04-21 14:26:00,
2013-04-21 09:31:00,48.7,34.6,30.45,NE,54,2.0,3.0,58,0.00,,,0.00,Wunderground v.1.15,2013-04-21 14:31:00,
2013-04-21 09:36:00,49.1,34.9,30.45,SE,129,3.0,3.0,58,0.00,,,0.00,Wunderground v.1.15,2013-04-21 14:36:00,
2013-04-21 09:41:00,49.5,34.4,30.45,ENE,69,2.0,3.0,56,0.00,,,0.00,Wunderground v.1.15,2013-04-21 14:41:00,
2013-04-21 09:46:00,49.7,35.5,30.45,East,85,2.0,3.0,58,0.00,,,0.00,Wunderground v.1.15,2013-04-21 14:46:00,
2013-04-21 09:51:00,49.8,35.6,30.45,ENE,57,3.0,4.0,58,0.00,,,0.00,Wunderground v.1.15,2013-04-21 14:51:00,
2013-04-21 09:56:00,49.9,35.3,30.45,ESE,121,3.0,4.0,57,0.00,,,0.00,Wunderground v.1.15,2013-04-21 14:56:00,
2013-04-21 10:01:00,50.8,37.0,30.45,ESE,111,2.0,2.0,59,0.00,,,0.00,Wunderground v.1.15,2013-04-21 15:01:00,
2013-04-21 10:06:00,52.1,36.4,30.45,SW,219,1.0,2.0,55,0.00,,,0.00,Wunderground v.1.15,2013-04-21 15:06:00,
2013-04-21 10:11:00,52.7,36.5,30.45,ESE,108,1.0,3.0,54,0.00,,,0.00,Wunderground v.1.15,2013-04-21 15:11:00,
2013-04-21 10:16:00,52.8,36.6,30.45,East,86,1.0,3.0,54,0.00,,,0.00,Wunderground v.1.15,2013-04-21 15:16:00,
2013-04-21 10:21:00,52.9,35.7,30.45,SE,136,2.0,2.0,52,0.00,,,0.00,Wunderground v.1.15,2013-04-21 15:21:00,
2013-04-21 10:26:00,53.2,37.0,30.45,SW,235,1.0,2.0,54,0.00,,,0.00,Wunderground v.1.15,2013-04-21 15:26:00,
2013-04-21 10:31:00,53.6,37.3,30.45,SSE,148,1.0,1.0,54,0.00,,,0.00,Wunderground v.1.15,2013-04-21 15:31:00,
2013-04-21 10:36:00,53.9,36.2,30.45,East,97,1.0,2.0,51,0.00,,,0.00,Wunderground v.1.15,2013-04-21 15:36:00,
2013-04-21 10:41:00,53.6,35.9,30.45,ESE,103,1.0,2.0,51,0.00,,,0.00,Wunderground v.1.15,2013-04-21 15:41:00,
2013-04-21 10:46:00,53.4,35.7,30.45,ESE,121,2.0,4.0,51,0.00,,,0.00,Wunderground v.1.15,2013-04-21 15:46:00,
2013-04-21 10:51:00,53.5,36.8,30.44,SSE,150,2.0,2.0,53,0.00,,,0.00,Wunderground v.1.15,2013-04-21 15:51:00,
2013-04-21 10:56:00,53.9,36.7,30.44,ENE,75,1.0,4.0,52,0.00,,,0.00,Wunderground v.1.15,2013-04-21 15:56:00,
2013-04-21 11:01:00,54.0,35.8,30.44,ESE,108,2.0,3.0,50,0.00,,,0.00,Wunderground v.1.15,2013-04-21 16:01:00,
2013-04-21 11:11:00,55.5,37.7,30.44,SE,125,2.0,2.0,51,0.00,,,0.00,Wunderground v.1.15,2013-04-21 16:11:00,
2013-04-21 11:16:00,55.3,36.5,30.44,SE,126,2.0,2.0,49,0.00,,,0.00,Wunderground v.1.15,2013-04-21 16:16:00,
2013-04-21 11:26:00,56.8,37.8,30.44,WSW,248,1.0,2.0,49,0.00,,,0.00,Wunderground v.1.15,2013-04-21 16:26:00,
2013-04-21 11:31:00,57.7,38.1,30.43,ESE,117,1.0,1.0,48,0.00,,,0.00,Wunderground v.1.15,2013-04-21 16:31:00,
2013-04-21 11:36:00,57.4,36.2,30.43,ESE,120,1.0,5.0,45,0.00,,,0.00,Wunderground v.1.15,2013-04-21 16:36:00,
2013-04-21 11:41:00,57.0,38.0,30.43,East,91,3.0,5.0,49,0.00,,,0.00,Wunderground v.1.15,2013-04-21 16:41:00,
2013-04-21 11:46:00,56.5,36.5,30.42,ESE,114,3.0,5.0,47,0.00,,,0.00,Wunderground v.1.15,2013-04-21 16:46:00,
2013-04-21 11:51:00,56.7,37.2,30.42,ENE,77,3.0,3.0,48,0.00,,,0.00,Wunderground v.1.15,2013-04-21 16:51:00,
2013-04-21 11:56:00,57.3,38.8,30.42,ESE,104,2.0,6.0,50,0.00,,,0.00,Wunderground v.1.15,2013-04-21 16:56:00,
2013-04-21 12:01:00,57.4,37.3,30.42,ESE,110,2.0,2.0,47,0.00,,,0.00,Wunderground v.1.15,2013-04-21 17:01:00,
2013-04-21 12:06:00,57.8,37.7,30.42,ESE,103,2.0,2.0,47,0.00,,,0.00,Wunderground v.1.15,2013-04-21 17:06:00,
2013-04-21 12:11:00,58.0,38.4,30.41,East,96,1.0,1.0,48,0.00,,,0.00,Wunderground v.1.15,2013-04-21 17:11:00,
2013-04-21 12:16:00,58.3,37.6,30.41,SE,139,1.0,1.0,46,0.00,,,0.00,Wunderground v.1.15,2013-04-21 17:16:00,
2013-04-21 12:21:00,58.5,37.8,30.41,ENE,77,1.0,3.0,46,0.00,,,0.00,Wunderground v.1.15,2013-04-21 17:21:00,
2013-04-21 12:26:00,57.9,37.2,30.41,ESE,120,2.0,3.0,46,0.00,,,0.00,Wunderground v.1.15,2013-04-21 17:26:00,
2013-04-21 12:31:00,57.6,37.5,30.40,ENE,67,3.0,3.0,47,0.00,,,0.00,Wunderground v.1.15,2013-04-21 17:31:00,
2013-04-21 12:36:00,58.2,38.6,30.40,SSE,151,2.0,3.0,48,0.00,,,0.00,Wunderground v.1.15,2013-04-21 17:36:00,
2013-04-21 12:41:00,59.0,38.8,30.40,SSE,160,1.0,1.0,47,0.00,,,0.00,Wunderground v.1.15,2013-04-21 17:41:00,
2013-04-21 12:46:00,59.5,38.1,30.40,ESE,120,1.0,1.0,45,0.00,,,0.00,Wunderground v.1.15,2013-04-21 17:46:00,
2013-04-21 12:51:00,60.0,38.6,30.39,East,91,0.0,0.0,45,0.00,,,0.00,Wunderground v.1.15,2013-04-21 17:51:00,
2013-04-21 12:56:00,60.6,38.6,30.39,West,271,0.0,1.0,44,0.00,,,0.00,Wunderground v.1.15,2013-04-21 17:56:00,
2013-04-21 13:01:00,60.4,37.8,30.39,East,91,1.0,1.0,43,0.00,,,0.00,Wunderground v.1.15,2013-04-21 18:01:00,
2013-04-21 13:06:00,60.1,38.1,30.38,ENE,66,2.0,2.0,44,0.00,,,0.00,Wunderground v.1.15,2013-04-21 18:06:00,
2013-04-21 13:11:00,59.8,37.8,30.38,ESE,103,2.0,3.0,44,0.00,,,0.00,Wunderground v.1.15,2013-04-21 18:11:00,
2013-04-21 13:16:00,60.0,38.6,30.38,ESE,110,2.0,3.0,45,0.00,,,0.00,Wunderground v.1.15,2013-04-21 18:16:00,
2013-04-21 13:21:00,61.0,39.5,30.38,South,173,1.0,1.0,45,0.00,,,0.00,Wunderground v.1.15,2013-04-21 18:21:00,
2013-04-21 13:26:00,61.5,39.4,30.38,ESE,112,1.0,1.0,44,0.00,,,0.00,Wunderground v.1.15,2013-04-21 18:26:00,
2013-04-21 13:31:00,61.3,38.0,30.37,SE,127,2.0,2.0,42,0.00,,,0.00,Wunderground v.1.15,2013-04-21 18:31:00,
2013-04-21 13:36:00,61.0,38.3,30.37,SE,131,2.0,3.0,43,0.00,,,0.00,Wunderground v.1.15,2013-04-21 18:36:00,
2013-04-21 13:41:00,61.2,39.7,30.37,ESE,112,2.0,2.0,45,0.00,,,0.00,Wunderground v.1.15,2013-04-21 18:41:00,
2013-04-21 13:46:00,61.7,40.7,30.37,East,98,2.0,2.0,46,0.00,,,0.00,Wunderground v.1.15,2013-04-21 18:46:00,
2013-04-21 13:51:00,62.1,38.7,30.36,East,90,2.0,3.0,42,0.00,,,0.00,Wunderground v.1.15,2013-04-21 18:51:00,
2013-04-21 13:56:00,62.4,40.2,30.36,SE,135,1.0,3.0,44,0.00,,,0.00,Wunderground v.1.15,2013-04-21 18:56:00,
2013-04-21 14:01:00,63.3,40.4,30.36,SSE,160,1.0,1.0,43,0.00,,,0.00,Wunderground v.1.15,2013-04-21 19:01:00,
2013-04-21 14:06:00,64.0,40.4,30.36,NE,47,1.0,1.0,42,0.00,,,0.00,Wunderground v.1.15,2013-04-21 19:06:00,
2013-04-21 14:11:00,63.4,39.9,30.36,ESE,123,1.0,1.0,42,0.00,,,0.00,Wunderground v.1.15,2013-04-21 19:11:00,
2013-04-21 14:16:00,62.6,39.2,30.35,NE,43,1.0,1.0,42,0.00,,,0.00,Wunderground v.1.15,2013-04-21 19:16:00,
2013-04-21 14:21:00,62.4,40.2,30.35,ESE,102,1.0,2.0,44,0.00,,,0.00,Wunderground v.1.15,2013-04-21 19:21:00,
2013-04-21 14:26:00,62.5,40.9,30.35,ENE,72,1.0,2.0,45,0.00,,,0.00,Wunderground v.1.15,2013-04-21 19:26:00,
2013-04-21 14:31:00,63.1,40.2,30.35,East,98,1.0,1.0,43,0.00,,,0.00,Wunderground v.1.15,2013-04-21 19:31:00,
2013-04-21 14:36:00,63.2,40.3,30.34,ESE,116,1.0,1.0,43,0.00,,,0.00,Wunderground v.1.15,2013-04-21 19:36:00,
2013-04-21 14:41:00,63.0,40.1,30.34,SSE,151,1.0,1.0,43,0.00,,,0.00,Wunderground v.1.15,2013-04-21 19:41:00,
2013-04-21 14:46:00,63.1,40.2,30.34,ENE,75,2.0,5.0,43,0.00,,,0.00,Wunderground v.1.15,2013-04-21 19:46:00,
2013-04-21 14:51:00,62.8,41.1,30.34,SE,138,2.0,2.0,45,0.00,,,0.00,Wunderground v.1.15,2013-04-21 19:51:00,
2013-04-21 15:01:00,63.0,40.1,30.33,ENE,60,3.0,3.0,43,0.00,,,0.00,Wunderground v.1.15,2013-04-21 20:01:00,
2013-04-21 15:06:00,63.1,41.4,30.33,ESE,103,2.0,3.0,45,0.00,,,0.00,Wunderground v.1.15,2013-04-21 20:06:00,
2013-04-21 15:11:00,63.6,40.7,30.33,ENE,68,2.0,3.0,43,0.00,,,0.00,Wunderground v.1.15,2013-04-21 20:11:00,
2013-04-21 15:16:00,63.5,39.4,30.32,East,91,2.0,4.0,41,0.00,,,0.00,Wunderground v.1.15,2013-04-21 20:16:00,
2013-04-21 15:21:00,63.2,40.3,30.32,ENE,65,3.0,6.0,43,0.00,,,0.00,Wunderground v.1.15,2013-04-21 20:21:00,
2013-04-21 15:26:00,63.0,40.1,30.32,SE,138,3.0,6.0,43,0.00,,,0.00,Wunderground v.1.15,2013-04-21 20:26:00,
2013-04-21 15:31:00,63.3,39.8,30.31,East,84,3.0,3.0,42,0.00,,,0.00,Wunderground v.1.15,2013-04-21 20:31:00,
2013-04-21 15:41:00,63.4,39.9,30.31,East,89,2.0,3.0,42,0.00,,,0.00,Wunderground v.1.15,2013-04-21 20:41:00,
2013-04-21 15:46:00,63.9,40.3,30.31,SE,139,2.0,3.0,42,0.00,,,0.00,Wunderground v.1.15,2013-04-21 20:46:00,
2013-04-21 15:51:00,64.3,40.7,30.31,East,79,2.0,3.0,42,0.00,,,0.00,Wunderground v.1.15,2013-04-21 20:51:00,
2013-04-21 15:56:00,63.8,40.3,30.30,ENE,60,2.0,3.0,42,0.00,,,0.00,Wunderground v.1.15,2013-04-21 20:56:00,
2013-04-21 16:01:00,63.8,40.3,30.30,East,88,2.0,3.0,42,0.00,,,0.00,Wunderground v.1.15,2013-04-21 21:01:00,
2013-04-21 16:06:00,63.7,39.5,30.30,East,84,2.0,3.0,41,0.00,,,0.00,Wunderground v.1.15,2013-04-21 21:06:00,
2013-04-21 16:11:00,64.0,40.4,30.30,SSE,158,2.0,3.0,42,0.00,,,0.00,Wunderground v.1.15,2013-04-21 21:11:00,
2013-04-21 16:16:00,64.0,41.0,30.29,ESE,115,2.0,3.0,43,0.00,,,0.00,Wunderground v.1.15,2013-04-21 21:16:00,
2013-04-21 16:21:00,64.1,40.5,30.30,SE,145,2.0,2.0,42,0.00,,,0.00,Wunderground v.1.15,2013-04-21 21:21:00,
2013-04-21 16:26:00,64.2,40.0,30.29,West,270,2.0,2.0,41,0.00,,,0.00,Wunderground v.1.15,2013-04-21 21:26:00,
2013-04-21 16:36:00,64.2,40.0,30.29,East,98,1.0,3.0,41,0.00,,,0.00,Wunderground v.1.15,2013-04-21 21:36:00,
2013-04-21 16:41:00,64.6,41.6,30.29,ESE,117,1.0,2.0,43,0.00,,,0.00,Wunderground v.1.15,2013-04-21 21:41:00,
2013-04-21 16:46:00,64.5,40.9,30.29,NE,56,1.0,2.0,42,0.00,,,0.00,Wunderground v.1.15,2013-04-21 21:46:00,
2013-04-21 16:51:00,64.2,40.6,30.29,SSW,213,2.0,2.0,42,0.00,,,0.00,Wunderground v.1.15,2013-04-21 21:51:00,
2013-04-21 16:56:00,64.3,40.1,30.29,ESE,111,2.0,3.0,41,0.00,,,0.00,Wunderground v.1.15,2013-04-21 21:56:00,
2013-04-21 17:01:00,64.1,41.7,30.29,East,95,2.0,2.0,44,0.00,,,0.00,Wunderground v.1.15,2013-04-21 22:01:00,
2013-04-21 17:06:00,63.8,40.3,30.29,ESE,121,2.0,2.0,42,0.00,,,0.00,Wunderground v.1.15,2013-04-21 22:06:00,
2013-04-21 17:11:00,63.7,40.8,30.29,East,86,2.0,2.0,43,0.00,,,0.00,Wunderground v.1.15,2013-04-21 22:11:00,
2013-04-21 17:16:00,63.4,41.1,30.29,ESE,102,2.0,2.0,44,0.00,,,0.00,Wunderground v.1.15,2013-04-21 22:16:00,
2013-04-21 17:21:00,64.1,41.1,30.28,SE,124,2.0,2.0,43,0.00,,,0.00,Wunderground v.1.15,2013-04-21 22:21:00,
2013-04-21 17:26:00,64.5,40.9,30.29,SE,143,1.0,2.0,42,0.00,,,0.00,Wunderground v.1.15,2013-04-21 22:26:00,
2013-04-21 17:31:00,64.3,42.5,30.28,East,81,1.0,2.0,45,0.00,,,0.00,Wunderground v.1.15,2013-04-21 22:31:00,
2013-04-21 17:36:00,63.5,41.2,30.29,ESE,102,2.0,2.0,44,0.00,,,0.00,Wunderground v.1.15,2013-04-21 22:36:00,
2013-04-21 17:46:00,63.2,39.7,30.28,ENE,70,2.0,2.0,42,0.00,,,0.00,Wunderground v.1.15,2013-04-21 22:46:00,
2013-04-21 17:51:00,62.9,40.6,30.28,East,87,2.0,2.0,44,0.00,,,0.00,Wunderground v.1.15,2013-04-21 22:51:00,
2013-04-21 17:56:00,62.7,40.5,30.29,East,80,2.0,5.0,44,0.00,,,0.00,Wunderground v.1.15,2013-04-21 22:56:00,
2013-04-21 18:06:00,62.5,39.7,30.28,ENE,69,3.0,3.0,43,0.00,,,0.00,Wunderground v.1.15,2013-04-21 23:06:00,
2013-04-21 18:11:00,62.4,39.6,30.28,ENE,67,2.0,3.0,43,0.00,,,0.00,Wunderground v.1.15,2013-04-21 23:11:00,
2013-04-21 18:16:00,62.6,40.4,30.28,ESE,108,1.0,3.0,44,0.00,,,0.00,Wunderground v.1.15,2013-04-21 23:16:00,
2013-04-21 18:21:00,62.6,39.8,30.28,ESE,120,1.0,1.0,43,0.00,,,0.00,Wunderground v.1.15,2013-04-21 23:21:00,
2013-04-21 18:26:00,62.2,40.0,30.28,ENE,61,2.0,2.0,44,0.00,,,0.00,Wunderground v.1.15,2013-04-21 23:26:00,
2013-04-21 18:31:00,61.8,39.6,30.28,East,91,2.0,3.0,44,0.00,,,0.00,Wunderground v.1.15,2013-04-21 23:31:00,
2013-04-21 18:36:00,61.5,39.9,30.28,ENE,78,3.0,3.0,45,0.00,,,0.00,Wunderground v.1.15,2013-04-21 23:36:00,
2013-04-21 18:41:00,61.3,39.8,30.28,ENE,57,2.0,2.0,45,0.00,,,0.00,Wunderground v.1.15,2013-04-21 23:41:00,
2013-04-21 18:46:00,61.2,39.7,30.28,ESE,114,2.0,2.0,45,0.00,,,0.00,Wunderground v.1.15,2013-04-21 23:46:00,
2013-04-21 18:51:00,61.1,40.1,30.27,ESE,116,2.0,2.0,46,0.00,,,0.00,Wunderground v.1.15,2013-04-21 23:51:00,
2013-04-21 18:56:00,60.9,40.5,30.27,SE,129,2.0,3.0,47,0.00,,,0.00,Wunderground v.1.15,2013-04-21 23:56:00,
2013-04-21 19:01:00,60.7,40.9,30.27,East,85,2.0,3.0,48,0.00,,,0.00,Wunderground v.1.15,2013-04-22 00:01:00,
2013-04-21 19:06:00,60.5,40.7,30.27,ESE,110,2.0,3.0,48,0.00,,,0.00,Wunderground v.1.15,2013-04-22 00:06:00,
2013-04-21 19:11:00,60.5,40.7,30.28,East,99,2.0,3.0,48,0.00,,,0.00,Wunderground v.1.15,2013-04-22 00:11:00,
2013-04-21 19:16:00,60.3,41.0,30.28,ESE,102,1.0,4.0,49,0.00,,,0.00,Wunderground v.1.15,2013-04-22 00:16:00,
2013-04-21 19:21:00,60.2,41.0,30.28,ENE,71,1.0,3.0,49,0.00,,,0.00,Wunderground v.1.15,2013-04-22 00:21:00,
2013-04-21 19:31:00,59.9,40.7,30.28,ESE,107,2.0,2.0,49,0.00,,,0.00,Wunderground v.1.15,2013-04-22 00:31:00,
2013-04-21 19:36:00,59.7,40.5,30.28,East,91,2.0,2.0,49,0.00,,,0.00,Wunderground v.1.15,2013-04-22 00:36:00,
2013-04-21 19:41:00,59.6,40.4,30.29,ESE,109,1.0,1.0,49,0.00,,,0.00,Wunderground v.1.15,2013-04-22 00:41:00,
2013-04-21 19:46:00,59.4,39.7,30.29,ESE,115,1.0,1.0,48,0.00,,,0.00,Wunderground v.1.15,2013-04-22 00:46:00,
2013-04-21 19:56:00,59.1,39.9,30.29,ESE,102,1.0,2.0,49,0.00,,,0.00,Wunderground v.1.15,2013-04-22 00:56:00,
2013-04-21 20:01:00,59.0,39.9,30.29,East,91,1.0,1.0,49,0.00,,,0.00,Wunderground v.1.15,2013-04-22 01:01:00,
2013-04-21 20:06:00,58.8,39.7,30.29,East,88,1.0,1.0,49,0.00,,,0.00,Wunderground v.1.15,2013-04-22 01:06:00,
2013-04-21 20:11:00,58.7,39.6,30.29,East,98,1.0,2.0,49,0.00,,,0.00,Wunderground v.1.15,2013-04-22 01:11:00,
2013-04-21 20:16:00,58.5,39.9,30.29,ENE,61,1.0,2.0,50,0.00,,,0.00,Wunderground v.1.15,2013-04-22 01:16:00,
2013-04-21 20:21:00,58.4,39.8,30.29,East,94,1.0,1.0,50,0.00,,,0.00,Wunderground v.1.15,2013-04-22 01:21:00,
2013-04-21 20:26:00,58.3,40.2,30.29,SE,129,1.0,1.0,51,0.00,,,0.00,Wunderground v.1.15,2013-04-22 01:26:00,
2013-04-21 20:31:00,58.1,39.5,30.30,ESE,102,1.0,1.0,50,0.00,,,0.00,Wunderground v.1.15,2013-04-22 01:31:00,
2013-04-21 20:36:00,58.0,40.0,30.30,East,95,1.0,1.0,51,0.00,,,0.00,Wunderground v.1.15,2013-04-22 01:36:00,
2013-04-21 20:41:00,58.0,40.0,30.30,ESE,119,1.0,1.0,51,0.00,,,0.00,Wunderground v.1.15,2013-04-22 01:41:00,
2013-04-21 20:46:00,57.9,39.9,30.31,SE,129,1.0,1.0,51,0.00,,,0.00,Wunderground v.1.15,2013-04-22 01:46:00,
2013-04-21 20:51:00,57.8,39.8,30.31,ESE,109,1.0,1.0,51,0.00,,,0.00,Wunderground v.1.15,2013-04-22 01:51:00,
2013-04-21 20:56:00,57.7,39.7,30.31,East,101,1.0,2.0,51,0.00,,,0.00,Wunderground v.1.15,2013-04-22 01:56:00,
2013-04-21 21:01:00,57.6,40.1,30.31,East,92,1.0,1.0,52,0.00,,,0.00,Wunderground v.1.15,2013-04-22 02:01:00,
2013-04-21 21:06:00,57.4,39.9,30.31,ESE,104,1.0,1.0,52,0.00,,,0.00,Wunderground v.1.15,2013-04-22 02:06:00,
2013-04-21 21:11:00,57.3,39.8,30.31,East,84,1.0,1.0,52,0.00,,,0.00,Wunderground v.1.15,2013-04-22 02:11:00,
2013-04-21 21:16:00,57.2,39.7,30.31,East,97,1.0,1.0,52,0.00,,,0.00,Wunderground v.1.15,2013-04-22 02:16:00,
2013-04-21 21:21:00,57.1,39.6,30.31,SE,124,1.0,1.0,52,0.00,,,0.00,Wunderground v.1.15,2013-04-22 02:21:00,
2013-04-21 21:26:00,57.1,39.6,30.31,ESE,102,1.0,1.0,52,0.00,,,0.00,Wunderground v.1.15,2013-04-22 02:26:00,
2013-04-21 21:36:00,56.9,39.4,30.31,ESE,118,1.0,2.0,52,0.00,,,0.00,Wunderground v.1.15,2013-04-22 02:36:00,
2013-04-21 21:41:00,56.7,39.3,30.32,ESE,110,1.0,1.0,52,0.00,,,0.00,Wunderground v.1.15,2013-04-22 02:41:00,
2013-04-21 21:46:00,56.6,38.7,30.32,ESE,103,1.0,1.0,51,0.00,,,0.00,Wunderground v.1.15,2013-04-22 02:46:00,
2013-04-21 21:51:00,56.5,39.1,30.32,East,98,1.0,1.0,52,0.00,,,0.00,Wunderground v.1.15,2013-04-22 02:51:00,
2013-04-21 21:56:00,56.4,38.0,30.32,ESE,103,1.0,3.0,50,0.00,,,0.00,Wunderground v.1.15,2013-04-22 02:56:00,
2013-04-21 22:01:00,56.4,37.5,30.32,ESE,120,2.0,2.0,49,0.00,,,0.00,Wunderground v.1.15,2013-04-22 03:01:00,
2013-04-21 22:06:00,56.3,37.9,30.32,ESE,121,1.0,2.0,50,0.00,,,0.00,Wunderground v.1.15,2013-04-22 03:06:00,
2013-04-21 22:11:00,56.2,37.3,30.32,East,92,1.0,2.0,49,0.00,,,0.00,Wunderground v.1.15,2013-04-22 03:11:00,
2013-04-21 22:16:00,56.2,37.3,30.32,SSE,152,1.0,2.0,49,0.00,,,0.00,Wunderground v.1.15,2013-04-22 03:16:00,
2013-04-21 22:21:00,56.1,37.2,30.32,SE,141,0.0,0.0,49,0.00,,,0.00,Wunderground v.1.15,2013-04-22 03:21:00,
2013-04-21 22:26:00,56.0,37.1,30.32,SE,139,0.0,0.0,49,0.00,,,0.00,Wunderground v.1.15,2013-04-22 03:26:00,
2013-04-21 22:31:00,55.9,37.5,30.32,SE,140,0.0,0.0,50,0.00,,,0.00,Wunderground v.1.15,2013-04-22 03:31:00,
2013-04-21 22:36:00,55.7,37.3,30.32,SE,135,0.0,0.0,50,0.00,,,0.00,Wunderground v.1.15,2013-04-22 03:36:00,
2013-04-21 22:41:00,55.6,36.7,30.32,ESE,106,0.0,1.0,49,0.00,,,0.00,Wunderground v.1.15,2013-04-22 03:41:00,
2013-04-21 22:46:00,55.6,36.7,30.32,ESE,108,1.0,1.0,49,0.00,,,0.00,Wunderground v.1.15,2013-04-22 03:46:00,
2013-04-21 22:51:00,55.6,36.7,30.32,ENE,58,2.0,2.0,49,0.00,,,0.00,Wunderground v.1.15,2013-04-22 03:51:00,
2013-04-21 23:01:00,55.3,36.5,30.31,East,94,1.0,1.0,49,0.00,,,0.00,Wunderground v.1.15,2013-04-22 04:01:00,
2013-04-21 23:06:00,55.1,36.8,30.31,ESE,115,1.0,2.0,50,0.00,,,0.00,Wunderground v.1.15,2013-04-22 04:06:00,
2013-04-21 23:11:00,54.9,36.1,30.31,SE,136,1.0,1.0,49,0.00,,,0.00,Wunderground v.1.15,2013-04-22 04:11:00,
2013-04-21 23:16:00,54.8,36.5,30.31,ESE,116,1.0,1.0,50,0.00,,,0.00,Wunderground v.1.15,2013-04-22 04:16:00,
2013-04-21 23:21:00,54.6,36.3,30.31,SE,143,0.0,0.0,50,0.00,,,0.00,Wunderground v.1.15,2013-04-22 04:21:00,
2013-04-21 23:26:00,54.4,36.6,30.31,SE,139,0.0,0.0,51,0.00,,,0.00,Wunderground v.1.15,2013-04-22 04:26:00,
2013-04-21 23:31:00,54.2,36.5,30.31,SE,139,0.0,0.0,51,0.00,,,0.00,Wunderground v.1.15,2013-04-22 04:31:00,
2013-04-21 23:36:00,53.9,36.7,30.31,SE,139,0.0,0.0,52,0.00,,,0.00,Wunderground v.1.15,2013-04-22 04:36:00,
2013-04-21 23:46:00,53.0,37.7,30.31,SE,140,0.0,0.0,56,0.00,,,0.00,Wunderground v.1.15,2013-04-22 04:46:00,
2013-04-21 23:51:00,52.5,36.3,30.31,SE,139,0.0,0.0,54,0.00,,,0.00,Wunderground v.1.15,2013-04-22 04:51:00,
2013-04-21 23:56:00,52.3,38.4,30.31,SE,140,0.0,0.0,59,0.00,,,0.00,Wunderground v.1.15,2013-04-22 04:56:00,